Regional Weather Roundup
Issued by NWS

Home | Current Version | Previous Version | Graphics & Text | Print | Product List | Glossary On
Versions: 1 2 3 4 5 6 7 8 9 10 11 12 13 14 15 16 17 18 19 20 21 22 23 24 25 26 27 28 29 30 31 32 33 34 35 36 37 38 39 40 41 42 43 44 45 46 47 48 49 50
000
ASUS43 KBIS 242002
RWRND

NORTH DAKOTA REGIONAL WEATHER ROUNDUP
NATIONAL WEATHER SERVICE BISMARCK ND
200 PM CST TUE JAN 24 2017

NOTE: "FAIR" INDICATES FEW OR NO CLOUDS BELOW 12,000 FEET WITH NO
SIGNIFICANT WEATHER AND/OR OBSTRUCTIONS TO VISIBILITY.


NDZ001>003-009>011-017-242100-
NORTHWEST NORTH DAKOTA

CITY           SKY/WX    TMP DP  RH WIND       PRES   REMARKS
WILLISTON      CLOUDY    20  13  74 NW8       29.92R WCI  10
MINOT          CLOUDY    23  17  78 NW16      29.85F WCI  10
$$

NDZ018>021-031>035-040>046-242100-
SOUTHWEST NORTH DAKOTA

CITY           SKY/WX    TMP DP  RH WIND       PRES   REMARKS
BISMARCK       CLOUDY    26  18  71 NW13      29.87F WCI  15
DICKINSON      CLOUDY    21  16  81 NW14      29.81F WCI   8
GARRISON         N/A     23  18  81 NW13      29.87R WCI  11
HETTINGER ARPT CLOUDY    20  16  84 NW13      29.84F WCI   7
$$

NDZ004>008-012>016-024-026-027-054-242100-
NORTHEAST NORTH DAKOTA

CITY           SKY/WX    TMP DP  RH WIND       PRES   REMARKS
GRAND FORKS    CLOUDY    29  21  72 NW8       29.85F
GRND FRKS AFB  CLOUDY    27  22  81 NW6       29.85F
DEVILS LAKE    CLOUDY    22  20  92 NW7       29.84S WCI  13
$$

NDZ022-023-025-028>030-036>039-047>053-242100-
SOUTHEAST NORTH DAKOTA

CITY           SKY/WX    TMP DP  RH WIND       PRES   REMARKS
FARGO          PTSUNNY   30  22  72 NW7       29.86S
JAMESTOWN      CLOUDY    25  21  85 N9        29.83S WCI  15
$$





USA.gov is the U.S. government's official web portal to all federal, state and local government web resources and services.